星链-5624 (STARLINK-5624 )

导读

STARLINK-5624是美国于2023年1月31日发射的星链卫星,隶属于SpaceX公司的星链互联网星座项目。该项目旨在通过近地轨道卫星群,为全球提供高速低延迟的宽带互联网服务,此卫星进一步扩充了星链星座的在轨规模,助力覆盖范围与服务能力提升。

基本信息
目录编号:
55416
目录名称:
STARLINK-5624
国际标识:
2023-014AB
轨道中心:
EARTH
卫星名称:
星链-5624
卫星全名:
星链-5624 (STARLINK-5624 )
卫星状态:
在轨 (已飞行1320 天)
发射日期:
2023-01-31 UTC
国别 :
美国 (US)
星等 :
--
该卫星已列入 空间交会检测服务 Space Conjunction Data Service (SCDS) ,当前飞行风险评估等级: 无高风险
轨道信息
数据来源 国际轨道数据
星历时间: 2026-09-12T13:16:56+0800
8小时前
查看轨道信息
半长轴: 6950.177km
偏心率: 0.0003348
轨道倾角: 70.000°
近地点辐角 269.734°
升交点赤经 334.109°
平近点角 90.344°
近地点: 569.713km
远地点: 574.367km
周期: 96.107分钟
每日圈数: 14.983353
详细信息
固有亮度:
5
最大亮度:
2.5
卫星平台:
Starlink v1.5
覆盖范围:
全球
运营商:
太空探索技术公司
运营商所在国:
美国
制造商(研发单位):
太空探索技术公司
制造商所在国:
美国
使用方式:
暂无
卫星简介
星链(Starlink)计划是由太空探索技术公司(SpaceX)提出的一个巨型低轨卫星互联网星座项目,计划在2019年至2024年间在太空搭建由约1.2万颗卫星组成的“星链”网络,其中1584颗将部署在地球上空550千米处的近地轨道,并从2020年开始工作。该卫星仍在工作。
2D轨道图
3D轨道图
轨道高度分析图
轨道倾角分析图
轨道综合分析图
查看轨道综合分析图
交会数据列表
事件ID 空间交会对象 最接近时刻(TCA) 交会距离 交会风险概率(CRP) 交会风险指数(CRI) 操作
CDM_260913-042205-541606-722828
2026-09-13T
04:22:51+0000
1.532 km
极远距离
5.309162E-6 低风险 0.5
与全量物体交会距离演化趋势
与全量物体交会风险概率演化趋势